Wind_Speed
3 3 4 4 5 5 6 6 6 7 7 7 7 7 8 8 8 8 9 9 10 10 10 11 11 12 12 11 10 10 10 9 9 9 10 10 11 11 11 11 10 11 11
3 4 4 5 5 6 6 6 6 7 8 8 8 8 8 8 9 9 9 9 9 10 11 11 12 13 13 12 12 11 10 10 11 11 11 12 12 11 11 12 12 12 12
3 4 5 5 5 6 6 7 7 7 8 8 8 8 8 8 8 9 10 10 11 10 10 11 11 11 12 12 12 12 12 12 12 12 12 12 12 11 12 12 12 12 12
4 5 5 5 6 6 7 6 6 7 8 8 8 8 8 8 9 9 9 10 11 11 11 11 11 10 11 12 12 12 12 13 13 13 13 12 12 11 12 12 12 13 13
5 5 6 6 6 6 6 6 7 7 8 8 8 8 9 8 8 9 9 10 10 10 10 10 10 11 11 11 11 11 12 13 13 14 13 13 13 12 12 13 12 12 12
7 6 6 7 7 6 7 7 7 7 8 8 8 8 8 9 9 9 9 10 10 10 10 11 11 11 12 11 11 10 11 12 12 13 13 13 13 12 12 12 13 13 12
7 7 7 7 7 7 7 7 8 8 8 8 8 8 8 9 9 9 10 10 10 10 10 10 11 11 11 11 10 10 10 11 11 11 12 12 13 13 13 13 13 13 12
8 8 7 7 7 7 7 8 8 8 8 8 9 9 9 9 10 10 10 11 11 11 11 11 11 11 11 11 11 11 12 12 11 11 11 12 13 13 13 13 12 12 13
8 8 8 7 8 8 8 9 9 9 9 10 11 11 11 11 11 11 11 11 11 12 12 12 12 12 12 11 12 12 12 11 12 12 12 13 13 13 13 14 13 13 14
9 9 9 9 9 9 10 10 11 11 11 11 12 12 12 12 12 12 12 12 13 13 14 14 13 13 13 12 12 12 12 12 12 12 13 14 14 14 14 14 14 14 14
10 10 9 9 10 10 10 11 12 12 13 13 12 12 12 13 13 13 14 15 15 15 15 15 15 14 13 13 13 13 13 13 13 13 13 15 15 15 15 15 15 15 15
11 10 10 10 11 12 12 12 12 13 13 13 12 12 13 14 14 15 15 16 16 16 16 16 16 16 15 14 14 13 14 14 14 14 15 15 15 15 15 16 16 16 16
12 12 12 12 13 13 13 14 14 13 13 13 13 13 13 14 15 16 16 16 17 17 17 17 16 16 16 16 15 15 15 15 15 15 16 16 16 16 17 17 17 16 16
13 14 15 14 15 15 15 15 15 14 14 15 15 15 15 15 16 17 17 17 16 16 16 16 17 17 17 17 17 17 17 17 17 17 17 17 17 17 17 17 17 16 16
13 13 14 15 15 15 15 15 15 15 15 16 16 16 16 15 16 17 17 16 16 15 15 16 17 18 18 18 19 18 18 18 18 18 19 19 19 18 18 18 17 17 17
14 14 15 15 16 17 16 17 17 17 17 17 17 17 17 17 17 17 18 18 17 16 16 16 17 18 19 19 19 19 19 19 20 20 19 20 19 19 19 18 18 19 19
14 14 15 16 17 17 17 18 19 19 19 19 19 20 19 19 19 18 18 17 17 17 16 16 18 19 19 19 20 20 20 20 21 21 21 21 20 20 19 19 19 20 20
16 16 16 17 18 18 18 17 18 19 20 20 20 20 19 19 19 19 18 18 18 18 18 18 19 19 19 20 20 20 20 20 20 20 20 20 20 21 21 21 21 22 22
17 18 18 18 18 19 19 19 20 20 21 21 21 21 21 20 20 20 20 20 20 20 20 20 20 21 22 22 22 22 22 22 22 22 22 22 22 22 22 23 23 23 23
19 19 19 20 20 21 21 21 21 22 23 23 23 23 23 23 23 22 22 22 22 22 22 22 22 22 23 23 24 24 24 24 24 24 24 24 24 24 23 24 24 23 23
20 21 22 22 21 22 22 23 23 25 25 24 24 24 24 25 25 24 23 23 24 24 24 24 24 23 23 24 24 25 25 25 25 25 25 25 26 26 25 25 25 25 25
22 23 24 24 24 24 24 24 25 26 26 26 26 26 25 24 25 26 25 25 25 25 25 25 25 25 25 25 26 26 27 27 26 26 27 27 27 27 27 27 27 27 27
24 25 25 25 26 26 26 26 26 26 27 26 26 26 26 25 26 27 26 26 25 25 25 26 26 26 26 27 27 26 27 27 27 27 27 28 28 27 28 29 28 28 28
25 26 26 26 27 27 27 27 27 27 27 27 27 27 27 26 26 26 26 26 26 26 26 26 26 26 26 26 27 27 27 27 28 28 28 29 29 29 29 30 30 30 29
26 27 27 28 28 28 28 28 28 28 28 28 28 28 28 27 27 27 27 27 27 27 27 27 27 27 27 27 28 27 28 28 28 29 30 30 30 30 31 31 31 31 31
27 28 28 29 29 30 30 30 30 30 29 29 29 29 29 28 28 28 29 28 28 28 28 28 28 28 28 29 29 29 29 29 29 29 29 30 30 31 31 31 32 32 31
Wind_Direction
287 289 284 286 289 291 288 280 275 269 267 269 272 276 271 263 260 261 265 266 263 264 264 263 261 262 264 267 269 268 265 260 258 263 266 266 265 262 259 261 260 257 254
289 291 288 290 292 293 292 283 276 274 274 275 278 277 272 268 262 260 261 263 267 267 266 267 266 263 262 265 268 270 270 266 265 265 265 266 266 263 263 262 261 258 257
307 293 298 296 294 298 298 290 279 274 276 276 277 275 273 270 266 264 262 262 265 267 269 270 277 268 263 264 266 266 271 269 267 266 266 267 268 264 262 257 258 255 255
309 304 303 298 295 299 298 289 284 279 278 276 275 274 273 270 265 264 264 265 265 267 269 271 276 275 272 270 269 268 271 269 266 266 265 263 265 262 260 259 257 255 255
300 297 297 294 294 297 292 286 286 289 283 280 274 272 270 270 266 264 264 265 265 268 269 270 275 276 275 271 269 270 273 270 269 268 266 263 261 261 264 262 255 254 257
304 297 295 287 285 288 288 282 284 289 286 279 274 271 273 272 270 266 267 270 270 269 268 269 273 276 274 273 269 267 271 271 269 269 268 265 263 263 266 261 255 254 257
304 302 298 288 282 283 282 282 281 284 285 282 278 276 280 278 275 270 269 270 272 272 269 270 273 274 274 276 272 266 269 273 272 269 267 266 265 263 262 262 258 254 257
297 298 298 290 286 287 286 284 285 284 285 284 282 282 282 279 280 276 271 270 270 271 271 272 273 274 273 273 271 265 266 269 271 271 269 269 267 266 263 261 258 257 259
296 290 286 286 289 289 292 293 291 289 286 284 283 279 275 274 276 276 273 268 266 265 268 270 269 268 271 274 269 266 265 267 267 265 268 268 266 265 263 261 260 260 260
293 288 282 281 283 286 290 296 296 289 282 279 280 277 275 276 273 274 272 269 266 264 265 266 266 266 270 271 268 265 266 266 265 266 268 266 266 266 263 264 264 262 263
289 285 287 287 288 288 287 291 295 292 287 280 279 277 274 273 274 276 274 270 267 265 264 265 264 265 266 267 266 266 267 270 269 269 271 270 269 270 269 267 267 266 266
281 279 284 289 290 290 288 288 290 292 291 286 282 281 279 277 278 276 275 273 269 267 265 264 265 264 264 266 269 270 270 273 274 273 274 274 273 273 272 269 269 267 268
280 280 280 284 287 290 289 288 288 288 288 287 285 282 282 282 282 279 275 272 271 269 266 264 264 263 263 265 268 271 271 273 275 276 276 276 276 274 273 271 270 269 268
283 283 280 279 281 285 288 287 287 288 286 287 287 284 285 285 283 282 279 272 269 270 268 265 264 263 262 264 267 269 270 271 272 273 274 275 275 276 274 272 271 270 270
288 285 282 281 285 286 289 289 288 288 287 287 288 285 285 287 288 285 283 277 269 267 266 265 265 264 263 264 267 269 270 270 270 270 272 275 276 277 276 275 271 271 271
288 286 278 282 285 286 288 287 285 286 288 287 286 285 284 286 287 286 284 279 272 267 265 266 266 266 265 264 265 267 269 269 269 270 272 275 275 275 274 273 273 273 273
285 284 286 286 286 285 285 285 284 284 284 284 285 286 283 284 285 285 284 283 277 270 266 265 265 266 266 265 266 266 267 268 270 271 272 274 273 272 273 272 272 273 274
287 285 285 286 287 289 289 287 286 284 283 283 285 286 285 285 285 284 283 281 278 273 269 267 267 267 266 266 266 267 268 269 270 272 273 274 272 272 273 272 272 273 273
285 285 285 285 286 287 286 286 286 286 285 286 287 287 286 286 284 284 281 280 277 275 272 270 267 267 267 266 266 267 269 270 271 271 271 272 272 273 273 273 272 272 272
286 286 286 286 285 285 285 285 284 283 283 285 286 287 287 286 284 280 278 278 276 276 275 273 269 268 267 267 267 267 270 270 270 271 271 272 273 273 274 274 272 271 272
287 286 287 287 287 286 287 286 285 285 284 284 285 287 286 286 285 281 276 276 276 276 276 274 272 269 268 269 268 268 269 269 270 272 272 273 273 274 273 273 272 272 274
289 288 287 286 287 288 288 285 284 284 283 285 286 286 284 284 283 281 277 274 274 274 275 275 274 274 272 271 271 271 271 270 271 272 272 272 272 272 272 272 272 273 274
289 288 287 286 286 286 287 286 284 284 285 285 285 284 283 282 281 279 278 277 275 273 273 274 273 273 273 271 271 272 273 271 270 271 271 272 273 273 273 273 272 273 273
288 288 288 287 287 288 287 286 285 285 285 285 286 286 283 282 280 278 278 278 277 276 276 275 273 273 273 272 271 270 271 271 271 271 271 271 272 272 274 275 274 274 273
290 289 289 289 289 288 288 287 287 286 285 285 285 285 284 281 278 277 277 277 277 276 278 278 277 273 273 273 274 273 272 272 273 272 272 272 272 272 273 275 274 274 274
291 291 290 289 289 288 287 287 287 287 285 284 285 285 284 282 278 275 275 275 276 277 277 277 277 276 276 274 274 274 275 275 274 274 274 273 272 272 273 274 275 274 272
Height
5876 5876 5875 5875 5875 5874 5874 5874 5873 5873 5873 5873 5873 5873 5873 5873 5873 5873 5872 5872 5873 5873 5873 5873 5874 5874 5874 5874 5874 5874 5873 5873 5873 5874 5874 5875 5875 5875 5876 5876 5877 5877 5878
5875 5874 5874 5874 5873 5873 5872 5872 5872 5872 5872 5871 5871 5871 5871 5871 5871 5871 5871 5871 5871 5871 5871 5871 5871 5871 5871 5871 5871 5871 5871 5871 5871 5872 5872 5872 5872 5872 5873 5873 5874 5875 5876
5873 5873 5873 5872 5872 5871 5871 5870 5870 5870 5869 5869 5869 5869 5869 5869 5869 5869 5869 5869 5869 5869 5869 5868 5868 5868 5868 5868 5868 5869 5869 5868 5869 5869 5869 5869 5869 5869 5870 5871 5872 5872 5873
5872 5872 5871 5871 5870 5870 5869 5868 5868 5868 5867 5867 5867 5867 5867 5867 5867 5867 5867 5867 5867 5867 5866 5866 5866 5865 5865 5865 5865 5866 5866 5866 5866 5866 5866 5866 5867 5867 5868 5868 5869 5870 5870
5871 5870 5870 5869 5869 5868 5867 5867 5866 5866 5865 5865 5865 5865 5865 5865 5865 5865 5865 5865 5864 5864 5864 5863 5863 5863 5863 5862 5862 5863 5863 5863 5863 5863 5863 5863 5864 5864 5865 5865 5866 5867 5867
5869 5868 5868 5867 5867 5866 5866 5865 5864 5864 5863 5863 5863 5863 5863 5862 5862 5862 5862 5862 5862 5861 5861 5861 5861 5861 5860 5860 5860 5860 5860 5860 5860 5860 5860 5861 5861 5861 5862 5862 5863 5864 5865
5868 5867 5866 5865 5865 5865 5864 5863 5863 5862 5861 5861 5861 5861 5860 5860 5860 5860 5860 5860 5859 5859 5859 5859 5858 5858 5858 5858 5857 5858 5857 5857 5857 5857 5857 5858 5858 5858 5859 5859 5860 5861 5862
5866 5865 5864 5863 5863 5862 5862 5861 5860 5860 5859 5859 5859 5858 5858 5858 5857 5857 5857 5857 5857 5856 5856 5856 5856 5855 5855 5855 5855 5855 5855 5855 5854 5854 5854 5855 5855 5855 5856 5856 5857 5858 5858
5864 5863 5862 5861 5861 5860 5860 5859 5858 5858 5857 5857 5856 5856 5855 5855 5855 5855 5854 5854 5853 5853 5853 5853 5853 5852 5852 5852 5852 5852 5852 5852 5852 5852 5852 5852 5852 5852 5852 5853 5854 5854 5855
5862 5860 5860 5859 5859 5858 5858 5857 5856 5855 5854 5854 5853 5853 5853 5852 5852 5852 5851 5850 5850 5850 5850 5850 5850 5849 5849 5849 5849 5849 5849 5849 5849 5849 5849 5849 5849 5849 5849 5850 5850 5850 5851
5859 5858 5857 5857 5857 5856 5855 5854 5853 5852 5851 5850 5850 5849 5849 5848 5848 5848 5847 5847 5846 5846 5846 5846 5846 5846 5847 5847 5847 5846 5846 5846 5846 5846 5846 5846 5846 5846 5846 5846 5846 5846 5847
5857 5856 5856 5855 5854 5854 5853 5852 5851 5849 5848 5847 5847 5846 5846 5845 5844 5844 5843 5843 5842 5842 5842 5842 5842 5843 5843 5843 5843 5843 5843 5843 5843 5843 5842 5842 5842 5842 5842 5842 5842 5842 5842
5854 5854 5853 5853 5852 5851 5850 5849 5848 5847 5845 5844 5843 5842 5842 5841 5840 5839 5839 5838 5837 5837 5837 5837 5838 5838 5839 5839 5839 5839 5840 5839 5839 5839 5839 5838 5838 5838 5838 5838 5838 5837 5837
5851 5851 5850 5850 5849 5848 5847 5846 5845 5843 5842 5841 5840 5839 5838 5837 5836 5835 5834 5833 5833 5833 5832 5833 5833 5833 5834 5835 5835 5835 5835 5835 5835 5835 5834 5834 5834 5833 5833 5833 5833 5833 5833
5848 5847 5847 5846 5846 5844 5843 5842 5841 5840 5839 5838 5836 5835 5834 5833 5832 5831 5829 5828 5828 5828 5828 5828 5828 5829 5829 5830 5830 5830 5830 5830 5830 5830 5829 5829 5829 5829 5829 5828 5828 5828 5828
5845 5844 5844 5843 5842 5841 5840 5839 5837 5836 5835 5834 5832 5831 5830 5829 5827 5826 5825 5824 5823 5824 5824 5824 5824 5824 5824 5824 5825 5825 5825 5825 5825 5825 5824 5824 5824 5824 5824 5823 5823 5823 5823
5841 5840 5840 5839 5838 5837 5835 5834 5833 5832 5830 5829 5828 5826 5825 5824 5823 5822 5820 5819 5818 5818 5819 5819 5819 5819 5819 5819 5819 5819 5819 5819 5819 5819 5819 5818 5818 5818 5818 5818 5818 5818 5818
5837 5836 5835 5834 5833 5832 5831 5829 5828 5827 5825 5824 5823 5821 5820 5819 5817 5816 5815 5815 5814 5813 5814 5814 5813 5813 5813 5813 5813 5814 5814 5813 5813 5813 5813 5812 5812 5812 5812 5812 5812 5812 5811
5832 5831 5830 5829 5828 5827 5826 5825 5823 5822 5820 5819 5817 5816 5814 5813 5812 5811 5810 5809 5808 5807 5807 5807 5807 5807 5807 5807 5807 5807 5807 5807 5807 5807 5807 5806 5806 5806 5806 5806 5805 5805 5805
5827 5826 5825 5824 5823 5821 5820 5819 5817 5816 5814 5813 5811 5810 5809 5807 5806 5805 5803 5803 5802 5801 5801 5801 5801 5801 5800 5800 5800 5801 5801 5800 5800 5800 5800 5799 5799 5799 5799 5799 5798 5798 5798
5822 5821 5820 5818 5817 5816 5814 5812 5811 5810 5808 5807 5805 5803 5802 5800 5799 5798 5797 5796 5795 5794 5794 5794 5793 5794 5794 5793 5793 5793 5793 5793 5793 5793 5792 5792 5792 5792 5792 5791 5791 5791 5790
5816 5815 5814 5812 5811 5809 5808 5806 5804 5803 5802 5800 5798 5796 5795 5793 5792 5791 5790 5788 5788 5787 5787 5786 5786 5786 5786 5786 5786 5786 5786 5786 5786 5786 5785 5785 5785 5785 5784 5784 5784 5783 5783
5810 5808 5807 5805 5804 5802 5800 5799 5797 5796 5794 5792 5791 5789 5787 5786 5784 5783 5782 5781 5780 5779 5779 5779 5778 5778 5778 5778 5778 5778 5777 5777 5777 5777 5777 5777 5777 5777 5776 5776 5775 5775 5775
5803 5801 5800 5798 5796 5795 5793 5791 5790 5788 5786 5784 5783 5781 5779 5778 5776 5775 5774 5773 5772 5771 5771 5771 5770 5770 5770 5769 5769 5769 5769 5769 5769 5769 5769 5769 5768 5768 5768 5768 5767 5766 5766
5796 5794 5792 5790 5789 5787 5785 5783 5782 5780 5778 5776 5775 5773 5771 5770 5769 5767 5766 5766 5765 5764 5763 5763 5762 5761 5761 5761 5760 5760 5760 5760 5760 5760 5760 5760 5759 5759 5759 5759 5758 5757 5757
5788 5786 5784 5782 5780 5778 5777 5775 5773 5771 5769 5768 5766 5764 5763 5761 5760 5759 5758 5757 5757 5756 5755 5754 5753 5753 5752 5752 5751 5751 5751 5751 5750 5750 5750 5750 5750 5749 5750 5749 5748 5748 5748